Temperature
20 20 20 20 25 27 27 27 27 27 26 25 25 25 26 25 25 23 20 19 19 19 19 19 19 19 19 19 18 18 18 18 18 18 18 18 18 18 18 18 18 18 18 18 18 18 18 18 18
20 20 20 24 28 27 26 27 27 26 26 25 25 25 25 24 22 21 20 19 19 19 19 18 19 19 19 19 19 19 18 18 18 18 18 18 18 18 18 18 18 18 18 18 18 18 18 18 18
20 20 23 28 28 27 27 27 27 26 25 25 25 24 24 23 21 21 19 19 19 19 18 19 19 19 19 19 19 18 18 18 18 18 18 18 18 18 18 18 18 18 18 18 18 18 18 18 18
20 23 26 29 28 28 27 27 27 27 26 25 25 24 22 21 21 20 19 19 19 19 19 18 19 19 19 19 18 18 18 18 18 18 18 18 18 18 18 18 18 18 18 18 18 18 18 18 18
22 26 29 29 28 28 28 27 27 27 26 25 25 24 22 20 20 20 19 19 19 19 19 18 19 19 19 19 18 18 18 18 18 18 18 18 18 18 18 18 18 18 18 18 18 18 18 18 18
26 29 29 28 28 28 28 27 27 27 26 25 25 25 22 20 20 19 19 19 19 19 19 18 19 19 18 18 18 18 18 18 18 18 18 18 18 18 18 18 18 18 18 18 18 18 18 18 18
28 30 29 29 28 28 28 27 27 27 26 25 25 25 22 21 20 19 19 19 19 19 19 18 18 18 18 18 18 18 18 18 18 18 18 18 18 18 18 18 18 18 18 18 18 18 18 18 18
27 30 30 30 29 28 28 27 27 27 26 24 24 25 23 21 20 20 19 19 19 19 19 18 18 18 18 18 18 18 18 18 18 18 18 18 18 18 18 18 18 18 18 18 18 18 18 18 18
27 30 30 30 29 29 28 28 27 26 25 24 24 24 22 21 20 20 19 19 19 19 19 19 18 18 18 18 18 18 18 18 18 18 18 18 18 18 18 18 18 18 18 18 18 18 18 18 18
29 30 30 30 30 30 28 28 27 27 26 25 24 23 22 21 20 20 20 20 19 19 19 19 18 18 18 18 18 18 18 18 18 18 18 18 18 18 18 18 18 18 18 18 18 18 18 18 18
30 30 30 30 30 29 29 28 27 27 27 26 24 23 22 21 21 21 20 20 19 19 19 19 19 18 18 18 18 18 18 18 18 18 18 18 18 18 18 18 18 18 18 18 18 18 18 18 18
31 30 30 30 29 29 29 28 28 27 26 25 24 23 22 22 21 21 20 20 19 19 19 19 19 18 18 18 18 18 18 18 18 18 18 18 18 18 18 18 18 18 18 18 18 18 18 18 18
31 31 30 29 29 29 28 28 28 27 25 24 23 22 22 22 22 21 21 20 19 19 19 19 19 19 18 18 18 18 18 18 18 18 18 18 18 18 18 18 18 18 18 18 18 18 17 17 17
30 30 30 30 29 29 29 28 28 26 25 24 23 23 23 22 22 21 21 20 20 19 19 19 19 19 19 18 18 18 18 18 18 18 18 18 18 18 18 18 18 18 18 18 18 18 17 17 17
30 31 31 30 30 29 29 29 29 26 25 25 24 23 23 22 22 21 21 20 20 20 19 19 19 19 19 18 18 18 18 18 18 18 18 18 18 18 18 18 18 18 18 18 18 17 17 18 18
32 32 31 31 31 29 30 29 29 26 26 26 25 24 23 22 22 21 21 20 20 19 19 19 19 19 19 19 19 18 18 18 18 18 18 18 18 18 18 18 18 18 17 17 17 17 18 18 17
32 31 31 31 31 31 30 30 29 27 27 26 25 24 24 23 22 21 21 20 20 19 19 19 19 19 19 19 19 18 18 18 18 18 18 18 18 18 18 18 18 18 17 18 18 17 17 17 17
31 32 31 31 31 31 30 30 29 28 28 27 26 25 24 24 23 22 21 20 20 19 19 19 19 19 19 19 19 19 18 18 18 18 18 18 18 18 18 18 17 17 17 17 17 17 17 17 17
31 31 31 31 31 31 31 30 30 29 28 28 27 26 25 24 23 22 21 21 20 20 19 19 19 19 19 19 19 18 18 18 18 18 18 18 18 18 18 17 17 17 17 17 17 17 17 17 17
31 31 31 31 31 31 31 31 31 30 29 28 28 27 26 25 24 23 22 21 21 20 20 20 20 19 19 19 19 19 18 18 18 18 18 18 18 18 18 18 17 17 17 17 17 17 17 17 17
31 31 31 31 31 31 31 31 30 30 29 28 27 27 26 26 25 24 22 22 21 21 20 20 20 20 19 19 19 19 18 18 18 18 18 18 18 18 18 18 17 17 17 17 17 17 17 17 17
31 32 31 31 31 31 31 31 31 31 30 29 28 27 27 26 25 24 23 22 22 21 21 20 20 20 20 19 19 19 19 18 18 18 18 18 18 18 18 18 18 18 17 17 17 17 17 17 17
31 31 31 31 31 31 32 31 32 31 30 30 29 28 27 27 26 25 24 23 22 22 21 21 21 20 20 20 19 19 19 18 18 18 18 18 18 18 18 18 18 18 17 17 17 17 17 17 17
31 31 31 31 32 31 31 31 31 32 31 31 30 29 28 27 26 25 24 23 22 22 22 21 21 21 20 20 20 19 19 19 18 18 18 18 18 18 18 18 18 17 17 17 17 17 17 17 17
31 31 31 30 31 31 31 31 31 32 32 31 31 30 28 27 26 25 24 23 23 22 22 21 21 21 21 20 20 20 20 19 19 18 18 18 18 18 18 17 18 17 17 17 17 17 17 17 17
31 32 30 30 30 31 31 31 32 32 31 30 30 29 28 27 27 26 25 24 23 22 22 21 21 21 21 20 20 20 20 19 19 18 18 18 18 18 18 17 17 17 17 17 17 17 17 17 17
31 32 32 31 31 31 31 32 32 32 31 30 30 29 28 28 27 26 25 24 24 23 22 22 21 21 21 20 20 20 19 19 19 19 18 18 18 17 17 17 17 17 17 17 17 17 17 17 17
32 32 32 31 29 30 31 31 32 31 31 31 30 29 28 27 27 26 25 24 24 23 22 21 21 21 21 20 20 20 20 19 19 19 18 18 18 18 18 17 17 17 17 17 17 17 16 16 16
31 31 31 31 30 30 30 31 33 31 31 31 30 29 28 27 27 26 25 24 23 23 22 21 21 21 20 20 20 20 19 19 19 19 18 18 18 18 18 17 17 17 17 17 17 17 16 16 16
31 31 31 30 30 30 30 31 32 32 31 30 30 28 28 27 27 26 25 24 23 23 22 21 21 21 20 20 20 20 19 19 19 19 18 18 18 18 18 17 17 17 17 17 17 17 16 16 16
Wind_Speed
10 7 5 4 3 4 10 8 7 7 6 7 7 5 7 8 7 6 5 5 4 5 7 8 8 7 7 8 8 8 9 9 9 9 9 10 10 10 10 9 9 9 9 9 10 10 10 10 11
6 4 4 3 2 8 10 8 9 8 7 5 5 6 7 8 7 6 6 5 5 6 6 7 9 7 7 8 8 8 8 8 8 8 8 9 9 9 9 8 8 8 8 7 8 9 9 10 10
5 5 3 1 7 10 9 8 8 8 6 4 4 6 6 6 6 5 6 5 5 6 6 8 7 7 7 7 7 7 7 7 7 7 7 8 8 8 8 7 7 7 7 7 7 8 9 9 10
4 4 2 5 12 11 9 8 6 6 6 5 4 6 6 6 4 6 7 5 5 6 6 8 7 7 6 6 6 6 7 7 7 7 7 7 7 6 6 6 6 6 6 6 6 8 8 9 10
4 3 4 10 12 10 9 7 5 6 5 5 5 7 7 6 7 7 6 5 5 5 6 7 7 6 5 6 6 6 6 6 6 7 7 7 7 6 6 5 5 5 5 5 6 7 7 9 9
3 1 6 11 12 9 8 6 5 7 7 6 5 7 7 6 7 6 6 5 5 5 5 7 8 6 5 5 5 5 5 5 6 5 6 6 6 5 5 4 4 4 4 5 6 7 7 8 9
3 4 9 10 9 8 7 5 5 6 6 6 4 6 6 6 6 6 6 5 5 4 4 4 5 6 6 5 5 4 4 5 4 4 4 4 5 4 5 4 4 4 4 4 5 6 7 8 8
3 2 8 9 9 9 6 5 5 5 7 6 3 4 6 7 7 6 6 5 5 4 3 4 4 4 4 6 6 4 4 4 3 3 3 4 5 5 5 5 5 4 4 4 5 6 7 7 8
3 3 9 10 8 8 6 5 5 5 7 6 5 6 8 9 8 7 5 5 4 3 3 2 3 3 3 3 5 5 5 4 4 4 4 4 3 4 4 4 4 4 4 4 5 5 7 8 9
2 7 10 7 7 6 5 4 5 5 6 5 6 8 9 9 7 6 4 4 4 3 2 2 2 2 3 3 3 2 2 3 2 2 2 2 2 2 3 6 4 4 5 6 6 6 7 8 7
3 6 7 6 6 5 5 5 4 3 5 4 6 9 9 8 6 5 3 3 3 2 2 2 2 1 2 2 2 2 2 2 2 2 2 2 2 2 2 3 4 5 5 4 6 5 3 4 4
3 5 4 4 4 4 5 5 4 4 6 6 7 9 9 7 6 4 3 2 2 2 2 3 3 3 2 2 2 2 2 2 1 2 1 1 1 1 1 1 2 2 3 2 2 2 3 3 4
3 3 4 4 4 4 4 5 5 6 7 8 9 9 8 7 5 4 3 3 2 1 1 2 2 2 2 1 1 2 2 2 2 1 1 1 1 1 1 1 1 1 2 3 2 2 3 3 3
3 2 2 3 4 4 4 5 4 6 7 9 9 8 7 6 5 4 3 2 2 1 1 2 2 2 1 1 1 1 2 2 1 1 2 1 1 1 1 1 1 1 1 2 1 2 2 2 2
2 2 4 4 3 3 3 5 4 7 8 8 8 7 6 5 4 4 3 2 2 1 1 1 1 1 1 1 1 1 2 2 1 1 2 1 1 1 1 1 1 1 2 2 1 1 1 2 3
3 2 3 4 2 3 3 5 7 8 8 7 7 7 6 5 4 4 3 3 2 1 1 1 0 2 2 1 1 1 1 1 1 1 1 2 2 1 0 1 1 1 1 2 2 1 1 1 2
2 1 3 4 2 2 2 3 6 7 8 7 7 7 6 6 5 5 4 3 3 2 2 1 1 1 2 2 2 2 1 1 1 1 1 1 1 1 1 1 1 1 1 1 1 1 0 1 1
1 1 2 3 3 1 2 2 5 7 7 7 7 7 6 6 6 6 5 4 3 3 2 2 2 2 2 2 2 2 2 1 1 1 1 1 1 1 1 1 1 1 1 1 1 1 0 1 1
2 2 1 3 2 1 1 1 4 7 8 7 7 7 7 6 6 6 6 5 4 4 3 3 3 3 2 1 1 2 2 1 1 1 2 1 1 1 1 1 1 1 1 1 1 0 1 1 1
3 2 1 2 1 2 1 1 3 6 8 7 7 7 7 7 7 7 7 7 6 5 5 5 4 4 3 2 1 1 0 0 1 1 2 1 1 1 1 0 1 1 1 1 0 1 2 1 1
3 3 2 1 1 3 3 3 5 6 7 7 7 7 7 7 8 8 9 8 7 7 7 5 5 4 4 3 2 2 2 1 1 1 1 1 1 1 1 0 1 1 1 0 0 2 2 2 1
4 2 3 3 5 1 3 2 4 6 7 9 9 9 8 8 8 8 9 9 8 8 7 7 6 5 5 4 3 2 1 1 1 0 1 1 1 0 0 1 1 1 1 1 2 1 2 3 2
3 2 4 5 6 5 3 4 1 5 6 8 9 9 9 9 8 8 9 9 9 8 7 7 6 6 5 5 4 3 2 1 1 1 1 0 0 0 1 1 1 1 1 1 2 2 3 2 3
4 4 5 6 7 4 3 5 2 1 3 5 8 9 9 9 8 8 8 9 8 8 8 7 7 6 6 5 4 4 3 2 1 1 1 1 1 0 0 1 1 1 2 2 2 3 3 3 3
8 7 6 5 5 3 1 4 2 2 1 3 5 7 8 9 9 9 9 10 10 9 9 7 7 7 6 6 5 5 4 4 3 2 2 2 1 1 0 1 1 2 2 3 3 4 4 4 4
8 9 7 6 5 4 4 3 2 0 1 3 4 5 7 8 9 9 10 10 10 10 9 9 8 7 7 6 5 5 4 3 2 2 2 2 1 1 1 1 1 2 3 3 3 4 4 4 4
6 8 7 8 8 7 4 3 3 3 4 4 5 5 7 7 8 9 9 10 10 10 10 10 10 8 7 7 6 5 4 3 2 2 2 2 2 1 1 2 2 2 3 4 4 3 4 4 4
7 7 6 7 7 8 6 6 3 3 4 5 5 5 6 7 7 8 8 9 8 9 9 9 9 9 8 7 6 4 4 4 3 3 2 2 2 2 2 2 3 3 3 4 4 4 4 5 5
8 9 8 7 8 10 8 4 1 1 2 3 5 5 6 7 7 8 8 8 9 9 9 9 9 8 7 7 6 5 4 4 4 3 3 3 3 3 3 3 3 4 4 4 4 5 5 5 5
10 11 11 9 9 9 10 6 3 1 2 2 3 5 6 6 7 7 7 8 8 9 9 9 9 8 7 7 6 5 5 4 4 4 3 3 3 3 3 4 4 4 4 4 5 5 5 5 5
Wind_Direction
180 186 217 239 224 83 67 64 64 69 62 57 54 52 53 40 29 70 86 84 85 91 94 106 98 96 97 101 109 116 118 122 125 130 132 133 134 135 136 141 143 144 147 147 148 150 156 159 158
175 189 232 246 43 79 69 63 66 61 73 83 69 62 61 59 55 89 99 90 99 97 99 96 97 99 100 100 105 111 119 125 127 131 134 134 136 138 139 142 143 146 149 152 153 156 162 163 162
188 225 267 40 55 62 72 68 73 78 74 60 65 54 48 58 74 83 91 110 104 99 99 98 103 104 101 100 102 106 112 117 122 129 131 131 135 140 141 144 147 151 155 159 165 160 163 165 164
219 228 231 72 71 63 69 74 81 88 73 58 72 78 72 63 71 86 109 114 105 102 100 100 102 102 102 103 106 108 109 109 111 118 131 133 136 143 147 150 153 163 167 167 164 167 168 169 167
245 266 91 78 73 72 72 74 76 71 65 68 74 86 85 77 82 100 116 117 105 100 99 106 110 104 104 105 107 110 112 112 112 112 124 138 141 146 152 156 163 167 172 175 172 173 171 171 172
251 272 69 74 75 74 73 71 70 69 78 80 85 96 89 96 103 107 105 100 99 100 102 106 121 119 115 111 112 115 119 120 117 115 123 137 146 149 158 161 161 163 164 168 180 181 176 171 172
326 50 67 72 78 76 72 67 62 67 73 71 78 91 107 110 111 113 108 102 92 94 99 108 121 132 137 127 121 122 126 121 120 119 118 130 139 147 150 154 158 157 162 166 174 177 177 173 173
313 43 73 68 69 72 85 84 66 62 74 82 75 84 115 129 128 123 115 104 97 94 94 102 101 112 135 135 133 133 130 127 128 127 128 141 153 155 162 161 150 154 154 159 161 167 169 174 180
271 56 60 54 58 78 102 100 90 84 97 92 78 74 110 130 134 129 121 111 99 92 92 97 106 118 125 116 126 149 155 156 167 153 163 189 163 146 154 117 132 152 154 152 158 169 182 187 182
318 57 55 48 52 77 101 92 98 108 104 102 104 100 118 130 134 132 126 115 104 93 100 100 106 134 134 119 122 139 138 137 149 128 151 154 139 149 137 125 147 156 160 161 161 176 196 205 179
43 55 55 58 60 75 97 92 94 97 84 100 123 130 136 138 137 135 123 105 97 93 73 71 84 118 124 123 123 110 106 123 143 141 164 160 168 159 149 142 162 170 178 171 162 184 190 173 163
67 58 47 62 75 84 92 101 96 72 68 97 123 135 141 146 144 142 134 123 107 85 59 50 72 107 114 114 124 139 120 117 112 117 152 140 129 136 130 160 149 160 146 144 166 147 149 156 173
71 62 60 79 103 93 106 101 93 93 97 112 127 138 145 144 142 142 139 134 125 110 61 51 56 78 107 123 175 118 102 100 101 91 98 91 106 109 117 92 126 141 135 146 159 153 152 167 174
56 64 86 107 113 122 124 113 109 111 125 130 138 147 150 148 150 145 144 148 145 133 89 66 63 86 95 122 130 109 112 115 109 104 93 81 68 66 82 112 118 113 109 104 156 152 175 180 169
163 142 120 111 122 136 167 122 109 131 143 144 149 153 157 161 166 168 165 180 173 153 96 82 112 101 120 145 159 132 123 113 106 104 101 80 81 82 90 86 113 96 106 126 149 149 178 179 178
205 208 106 100 134 158 236 86 117 149 158 154 156 160 170 176 185 187 184 188 194 203 190 279 185 136 143 143 148 132 116 104 100 106 111 90 68 75 58 83 97 116 142 141 146 182 183 165 192
200 73 70 101 135 173 227 81 124 162 171 166 168 171 177 182 193 197 200 196 199 205 214 218 195 153 140 144 151 147 126 106 102 104 110 114 114 85 75 55 75 153 136 138 178 123 170 173 208
13 40 72 71 103 210 224 103 140 172 186 179 177 179 184 189 194 195 201 201 196 192 199 204 190 181 165 155 155 157 141 159 122 117 101 114 122 102 44 115 116 136 110 117 103 91 101 245 233
312 318 47 56 58 254 226 207 164 174 192 193 188 187 190 195 191 190 195 198 192 189 192 195 200 180 185 174 172 166 158 153 128 126 102 118 129 118 77 42 116 153 114 100 125 183 208 238 259
253 258 137 114 95 269 307 244 180 187 198 202 197 195 195 191 189 189 193 194 195 193 194 194 198 191 193 177 168 159 142 137 107 101 94 105 118 125 170 117 206 167 137 162 228 271 285 276 273
253 278 300 305 213 214 269 199 172 181 198 204 209 205 201 198 194 189 192 196 197 197 196 195 197 194 194 189 174 161 163 172 128 113 108 91 112 109 357 313 254 238 259 99 304 276 274 274 282
252 287 276 258 261 267 295 308 153 177 196 204 209 206 204 200 199 194 191 193 198 197 192 191 194 195 192 194 192 193 194 169 114 123 96 92 107 134 263 287 260 239 252 261 266 278 271 267 272
283 274 253 257 267 277 259 289 137 170 203 202 204 205 203 200 200 199 195 191 194 190 187 185 185 187 186 190 188 200 211 186 159 145 120 308 55 284 263 242 265 258 257 260 281 290 278 269 277
217 213 224 237 255 267 303 289 308 153 211 196 191 196 199 198 198 198 195 188 189 187 188 185 179 183 184 188 188 195 198 200 200 218 204 223 189 232 272 233 263 262 277 275 268 273 268 281 287
222 240 242 238 239 263 253 275 305 16 219 207 194 192 192 193 194 193 192 189 189 188 187 184 178 181 182 184 188 190 195 197 202 229 226 260 259 261 338 293 267 268 269 264 263 261 272 273 271
226 251 267 279 281 279 214 266 320 61 187 192 192 187 187 190 191 192 191 189 189 187 185 181 177 180 179 179 182 186 198 206 199 210 247 249 278 295 316 270 261 257 260 260 256 262 265 264 265
231 243 269 272 273 276 267 256 236 185 191 188 185 185 188 190 190 189 188 186 186 185 183 181 177 176 177 178 179 184 193 198 195 196 223 237 260 261 254 253 251 256 263 269 267 263 270 272 266
255 251 246 258 273 273 267 257 258 200 204 197 192 188 184 183 181 180 181 181 181 181 179 180 179 178 176 176 184 180 188 193 199 212 215 235 247 263 257 262 265 266 269 270 268 265 266 268 268
217 230 249 262 268 272 277 276 58 198 215 210 197 187 180 183 179 175 173 173 175 176 176 177 179 178 176 181 183 187 188 190 196 208 221 224 237 245 251 262 273 276 275 275 271 270 270 269 271
243 243 241 250 255 261 273 278 100 148 201 206 194 179 176 178 175 170 168 165 169 173 175 176 178 179 179 178 182 190 195 198 203 207 219 224 232 244 248 259 265 271 273 272 270 268 263 264 268
Height
1506 1506 1506 1508 1503 1499 1503 1503 1500 1502 1504 1507 1508 1507 1508 1510 1512 1520 1522 1520 1520 1520 1519 1517 1517 1517 1517 1518 1518 1518 1519 1520 1520 1522 1523 1524 1525 1526 1527 1528 1530 1531 1532 1533 1534 1535 1537 1538 1539
1508 1507 1509 1506 1497 1505 1509 1503 1504 1506 1508 1510 1510 1511 1511 1514 1518 1521 1521 1521 1522 1522 1521 1520 1519 1519 1519 1519 1520 1520 1521 1522 1523 1523 1524 1525 1526 1527 1528 1530 1531 1532 1533 1534 1535 1536 1537 1538 1539
1508 1508 1509 1499 1500 1505 1510 1505 1506 1509 1510 1510 1512 1513 1515 1519 1521 1522 1523 1523 1523 1523 1523 1521 1521 1521 1521 1521 1521 1522 1522 1523 1524 1525 1526 1526 1527 1528 1529 1530 1531 1533 1534 1534 1535 1536 1537 1538 1539
1510 1510 1506 1498 1504 1504 1505 1506 1508 1509 1511 1512 1513 1515 1519 1523 1524 1524 1524 1524 1524 1524 1524 1523 1522 1522 1522 1522 1523 1523 1524 1525 1525 1526 1526 1527 1528 1529 1530 1531 1532 1532 1534 1534 1534 1536 1537 1538 1539
1511 1506 1498 1501 1504 1505 1505 1508 1509 1508 1511 1513 1514 1517 1521 1525 1525 1525 1525 1526 1526 1526 1526 1524 1523 1523 1523 1524 1524 1525 1525 1526 1526 1527 1527 1528 1529 1530 1530 1531 1532 1532 1533 1534 1535 1536 1537 1538 1539
1509 1501 1500 1506 1507 1506 1508 1510 1510 1510 1513 1515 1516 1518 1523 1526 1526 1526 1527 1527 1527 1527 1526 1525 1524 1524 1524 1524 1525 1526 1526 1527 1527 1528 1528 1529 1530 1530 1531 1531 1532 1532 1533 1533 1534 1535 1537 1537 1538
1508 1498 1502 1503 1507 1508 1510 1511 1511 1511 1513 1516 1518 1518 1524 1527 1527 1527 1527 1527 1527 1527 1527 1526 1526 1525 1525 1525 1526 1526 1527 1527 1528 1528 1529 1529 1530 1530 1531 1531 1532 1532 1533 1533 1533 1534 1536 1537 1538
1508 1500 1500 1501 1506 1509 1511 1513 1514 1513 1516 1519 1520 1520 1524 1527 1528 1528 1528 1528 1528 1528 1527 1527 1527 1526 1527 1527 1526 1527 1527 1528 1528 1529 1529 1530 1530 1531 1531 1532 1532 1532 1533 1533 1534 1534 1535 1537 1538
1509 1501 1503 1503 1504 1508 1511 1512 1515 1516 1518 1520 1521 1522 1525 1527 1528 1529 1529 1529 1528 1528 1527 1527 1527 1526 1527 1528 1528 1528 1528 1528 1529 1529 1529 1530 1531 1532 1532 1532 1532 1532 1533 1533 1534 1535 1536 1537 1538
1505 1503 1505 1504 1504 1506 1510 1511 1514 1515 1517 1520 1522 1525 1526 1527 1528 1529 1529 1529 1529 1529 1528 1527 1526 1526 1527 1528 1528 1529 1529 1529 1529 1529 1530 1531 1531 1532 1532 1532 1532 1532 1533 1533 1534 1535 1536 1537 1539
1505 1504 1505 1506 1507 1508 1510 1512 1514 1514 1515 1519 1522 1525 1527 1528 1529 1529 1530 1530 1530 1529 1528 1527 1525 1524 1526 1528 1529 1529 1530 1529 1530 1530 1530 1530 1531 1532 1533 1533 1533 1533 1533 1534 1535 1535 1536 1537 1538
1507 1506 1507 1508 1509 1509 1510 1513 1515 1515 1518 1521 1523 1525 1527 1528 1529 1530 1530 1530 1530 1530 1529 1527 1525 1524 1525 1528 1529 1530 1530 1530 1531 1530 1531 1531 1531 1531 1532 1532 1533 1533 1534 1534 1535 1535 1536 1536 1538
1507 1507 1509 1509 1510 1511 1512 1513 1515 1518 1521 1522 1524 1526 1528 1529 1530 1531 1531 1531 1531 1530 1529 1528 1527 1526 1527 1528 1529 1530 1530 1531 1531 1531 1531 1531 1532 1532 1532 1532 1532 1533 1534 1534 1534 1535 1535 1536 1537
1508 1508 1508 1509 1510 1512 1512 1514 1515 1519 1522 1524 1525 1527 1528 1529 1530 1531 1531 1531 1531 1531 1530 1529 1528 1528 1528 1529 1529 1530 1531 1531 1531 1531 1531 1531 1532 1531 1532 1532 1532 1533 1533 1534 1534 1534 1535 1536 1536
1509 1506 1506 1507 1509 1511 1511 1512 1514 1519 1522 1523 1525 1527 1529 1530 1531 1531 1531 1532 1532 1532 1531 1530 1530 1530 1529 1530 1530 1531 1531 1532 1531 1531 1531 1531 1531 1531 1531 1532 1532 1533 1533 1533 1533 1534 1534 1535 1536
1504 1503 1505 1506 1507 1510 1511 1513 1514 1519 1521 1522 1525 1527 1528 1530 1530 1531 1532 1532 1532 1532 1531 1531 1531 1530 1530 1530 1530 1531 1532 1532 1531 1531 1532 1531 1531 1531 1531 1532 1532 1532 1533 1533 1533 1533 1534 1534 1535
1502 1506 1506 1506 1506 1507 1508 1510 1513 1517 1519 1521 1523 1525 1527 1529 1530 1531 1531 1531 1532 1531 1531 1531 1531 1531 1531 1531 1531 1531 1531 1532 1532 1532 1532 1531 1531 1531 1531 1531 1531 1532 1532 1533 1533 1533 1533 1533 1534
1508 1505 1506 1506 1504 1505 1506 1507 1511 1515 1516 1518 1521 1524 1526 1527 1529 1530 1530 1531 1531 1531 1531 1531 1531 1531 1531 1531 1531 1532 1532 1532 1532 1532 1531 1530 1531 1531 1531 1532 1531 1532 1532 1532 1532 1532 1532 1533 1533
1504 1505 1507 1505 1504 1505 1506 1506 1507 1512 1514 1516 1518 1521 1523 1526 1527 1528 1529 1530 1530 1530 1530 1530 1531 1531 1531 1531 1532 1532 1533 1532 1532 1532 1531 1531 1531 1531 1531 1532 1531 1532 1532 1532 1532 1532 1532 1533 1533
1504 1506 1506 1505 1504 1504 1504 1504 1503 1507 1511 1513 1515 1518 1521 1523 1525 1527 1528 1528 1529 1529 1529 1530 1530 1531 1531 1531 1532 1532 1533 1533 1533 1532 1531 1531 1531 1531 1532 1531 1532 1532 1532 1532 1532 1532 1533 1533 1533
1504 1504 1505 1506 1504 1502 1503 1504 1503 1505 1509 1512 1514 1516 1518 1520 1522 1524 1525 1526 1527 1528 1528 1529 1529 1530 1531 1531 1532 1532 1532 1533 1533 1533 1532 1532 1532 1532 1531 1531 1531 1531 1532 1532 1532 1532 1532 1533 1533
1506 1501 1503 1504 1505 1503 1504 1510 1501 1500 1504 1507 1510 1512 1515 1517 1519 1521 1523 1524 1525 1526 1527 1528 1528 1529 1530 1530 1532 1532 1533 1533 1533 1533 1532 1532 1532 1532 1531 1531 1531 1531 1531 1531 1532 1532 1532 1532 1532
1503 1501 1502 1502 1503 1504 1501 1506 1500 1497 1501 1501 1505 1508 1511 1514 1517 1519 1520 1522 1524 1525 1526 1527 1527 1528 1529 1530 1530 1531 1532 1533 1533 1533 1532 1532 1532 1532 1531 1531 1530 1530 1531 1531 1531 1531 1531 1531 1531
1502 1503 1502 1500 1499 1513 1505 1507 1505 1493 1496 1496 1500 1505 1508 1511 1514 1516 1518 1520 1522 1523 1525 1526 1526 1527 1528 1529 1529 1530 1531 1531 1532 1532 1532 1532 1532 1531 1531 1530 1530 1530 1530 1530 1530 1530 1530 1530 1530
1501 1505 1513 1516 1514 1512 1501 1505 1502 1491 1492 1495 1497 1501 1505 1509 1511 1514 1516 1518 1519 1521 1523 1524 1525 1526 1527 1528 1529 1529 1529 1530 1530 1531 1532 1532 1532 1531 1530 1530 1529 1529 1529 1529 1529 1528 1529 1528 1528
1499 1500 1516 1525 1519 1507 1500 1504 1494 1490 1493 1496 1498 1500 1504 1506 1509 1511 1513 1515 1517 1519 1521 1522 1523 1524 1525 1526 1527 1528 1529 1530 1530 1530 1531 1531 1531 1531 1529 1529 1529 1528 1528 1528 1527 1527 1527 1527 1526
1499 1498 1493 1502 1506 1511 1501 1496 1490 1489 1492 1495 1497 1499 1502 1504 1507 1509 1511 1513 1515 1517 1519 1520 1521 1522 1524 1525 1526 1527 1528 1528 1529 1529 1529 1530 1529 1530 1528 1528 1528 1527 1526 1526 1526 1525 1525 1524 1524
1494 1492 1497 1504 1520 1519 1506 1500 1494 1490 1490 1491 1494 1497 1500 1502 1505 1507 1509 1511 1513 1515 1517 1518 1520 1521 1523 1524 1525 1526 1526 1527 1527 1528 1528 1528 1528 1528 1527 1527 1526 1526 1525 1524 1524 1524 1523 1522 1522
1497 1497 1497 1498 1502 1512 1514 1501 1481 1486 1488 1489 1492 1495 1498 1500 1503 1505 1507 1509 1511 1513 1515 1516 1518 1519 1521 1522 1523 1525 1525 1526 1526 1526 1526 1526 1526 1526 1525 1525 1525 1524 1523 1523 1522 1522 1521 1520 1519
1490 1491 1494 1504 1507 1503 1505 1498 1480 1484 1486 1489 1491 1495 1497 1499 1501 1503 1506 1508 1510 1511 1513 1515 1516 1518 1519 1521 1522 1523 1524 1524 1524 1524 1524 1524 1524 1524 1523 1523 1522 1522 1521 1520 1520 1519 1518 1518 1517